Regional Weather Roundup
Issued by NWS Albany, NY

Home | Current Version | Previous Version | Text Only | Print | Product List | Glossary On
Versions: 1 2 3 4 5 6 7 8 9 10 11 12 13 14 15 16 17 18 19 20 21 22 23 24 25 26 27 28 29 30 31 32 33 34 35 36 37 38 39 40 41 42 43 44 45 46 47 48 49 50
000
ASUS41 KALY 231910
RWRALY

NEW YORK STATE HOURLY WEATHER ROUNDUP
NATIONAL WEATHER SERVICE ALBANY NY
300 PM EDT SAT JUL 23 2016

NOTE: "FAIR" INDICATES FEW OR NO CLOUDS BELOW 12,000 FEET WITH NO
SIGNIFICANT WEATHER AND/OR NO OBSTRUCTIONS TO VISIBILITY.

NYZ032-033-038>043-046>054-057>066-NYZ062>081-082-084-232000-
EAST


CITY           SKY/WX    TMP DP  RH WIND       PRES   REMARKS
ALBANY         PTSUNNY   91  58  32 W15G22    29.79F HX  90
GLENS FALLS    MOSUNNY   86  63  45 SW15G21   29.76F
POUGHKEEPSIE   MOSUNNY   95  56  26 W15G26    29.80F HX  93
NEWBURGH       MOSUNNY   91  61  35 NW10G20   29.85F HX  91
MONTGOMERY     MOSUNNY   94  61  33 NW10      29.83F HX  94
WHITE PLAINS   MOSUNNY   94  56  27 NW13      29.83S HX  92
ISLIP          MOSUNNY   96  57  27 NW14G23   29.81S HX  95
NEW YORK CITY  MOSUNNY   95  57  27 W16G22    29.81S HX  94
CENTRAL PARK   SUNNY     94  55  26 VRB7      29.85S HX  92
$$

NYZ005>009-017-018-044>046-055-056-232000-
CENTRAL


CITY           SKY/WX    TMP DP  RH WIND       PRES   REMARKS
FULTON         SUNNY     86  63  45 W12       29.89S
SYRACUSE       MOSUNNY   86  61  42 W12G23    29.87S
ROME           SUNNY     84  64  50 W16       29.85F
ELMIRA         MOSUNNY   92  50  23 NW16G23   29.89F
BINGHAMTON     MOSUNNY   87  52  29 NW15G23   29.91F
MONTICELLO     SUNNY     88  54  31 NW21G28   29.91F
$$

NYZ026>034-041>043-087-232000-
NORTH


CITY           SKY/WX    TMP DP  RH WIND       PRES   REMARKS
WATERTOWN      SUNNY     84  62  47 W16       29.85S
FORT DRUM      NOT AVBL
MASSENA        PTSUNNY   79  63  57 N17G25    29.82R THUNDER
SARANAC LAKE   CLOUDY    73  64  73 VRB3      29.85S
PLATTSBURGH    PTSUNNY   72  63  73 N31G40    29.82R THUNDER
$$

NYZ001>004-010>016-019>021-085-232000-
WEST


CITY           SKY/WX    TMP DP  RH WIND       PRES   REMARKS
NIAGARA FALLS  MOSUNNY   93  54  26 NW14      29.93S HX  91
BUFFALO        MOSUNNY   87  60  40 W12G17    29.94S
DUNKIRK        SUNNY     87  60  40 W12       29.97S
JAMESTOWN      SUNNY     84  54  34 W13G21    30.02F
WELLSVILLE     MOSUNNY   88  52  29 NW10G28   30.02S
ROCHESTER      MOSUNNY   90  57  32 NW17G25   29.91S
PENN YAN       MOSUNNY   88  54  31 NW13G25   29.92S
$$

             KEY
       WCI = WIND CHILL INDEX
       VSB = VISIBILITY
       HX  = HEAT INDEX
$$



USA.gov is the U.S. government's official web portal to all federal, state and local government web resources and services.